Рапид-Сити

США     44°04′50″N   103°13′50″W
темп.,
°C
ветер,
м/с
пор.,
м/с
влажн.,
%
обл.,
%
осадки,
мм/ч
давл.,
гПа
погр.,
м
16 октября, сб
сб1600:00+5з510470 0.0 1021194
03:00+6з410450 0.0 1021166
06:00+7з48515 0.0 1022104
09:00+11зсз49445 0.0 1022470
12:00+17ссз57335 0.0 10201600
15:00+18сз45315 0.0 10191689
18:00+12юз11510 0.0 101911
21:00+9з22560 0.0 102116
17 октября, вс
вс1700:00+9зюз22490 0.0 101917
03:00+8зюз22450 0.0 101813
06:00+8з32415 0.0 101613
09:00+14зюз22365 0.0 101557
12:00+21ююв34235 0.0 1011627
15:00+24ююз56170 0.0 10071186
18:00+16ююз45345 0.0 100856
21:00+12юз33360 0.0 100818
18 октября, пн
пн1800:00+13юз33330 0.0 100625
03:00+12ююз23321 0.0 100538
06:00+14зюз3632100 0.0 1003106
09:00+18юз51032100 0.0 1003308
12:00+23ююз7921100 0.0 10011241
15:00+24юз55180 0.0 10001963
18:00+15зюз11380 0.0 100213
21:00+13з33415 0.0 100317
19 октября, вт
вт1900:00+13з324193 0.0 100413
03:00+13зсз4439100 0.0 100547
06:00+12ссз51246100 0.0 1006284
09:00+12ссз91546100 0.0 1008812
12:00+12ссз101150100 0.1 10101012
15:00+9ссз111572100 0.3 10111129
18:00+5с111693100 2.2 10161088
21:00+3ссз101595100 4.1 1018867
20 октября, ср
ср2000:00+3ссз91595100 6.1 1020818
03:00+3ссз81494100 0.7 1021834
06:00+4ссз61282100 1.0 1022913
09:00+5ссз6117311 0.0 1022756
12:00+9с78595 0.0 1021964
15:00+10с77535 0.0 1019877
18:00+6ссв346613 0.0 102278
21:00+3всв1179100 0.0 102415